Location: Astronomy Club of Akron Observatory
(40.9700°N, 81.5606°W)
Time: 13:59:00
(UTC-05:00)

ATLAS 2AS CENTAUR R/B - Visible Passes

Search period start: 14 February 2016 00:00
Search period end: 24 February 2016 00:00
Orbit: 908 x 1304 km, 63.7° (Epoch: 13 February)

Date Brightness Start Highest point End Pass type
(mag) Time Alt. Az. Time Alt. Az. Time Alt. Az.
14 Feb 4.7 05:17:49 10° SSE 05:23:58 30° ESE 05:30:32 10° NE visible
15 Feb 5.3 04:34:59 10° SE 04:39:41 18° ESE 04:44:36 10° ENE visible
15 Feb 3.0 06:22:08 10° SSW 06:29:32 90° ESE 06:37:36 10° NE visible
16 Feb 3.5 05:37:39 10° SSW 05:44:50 61° ESE 05:52:39 10° NE visible
17 Feb 4.1 04:53:38 10° S 05:00:18 39° ESE 05:07:28 10° NE visible
17 Feb 3.2 06:43:51 10° WSW 06:51:08 51° NW 06:58:58 10° NNE visible
18 Feb 4.8 04:10:15 10° SSE 04:15:56 25° ESE 04:21:56 10° ENE visible
18 Feb 2.9 05:58:43 10° SW 06:06:08 74° NW 06:14:11 10° NNE visible
19 Feb 5.2 03:28:00 10° SE 03:31:42 15° ESE 03:35:31 10° ENE visible
19 Feb 3.1 05:14:53 15° SSW 05:21:19 77° ESE 05:29:19 10° NE visible
20 Feb 3.6 04:32:43 27° S 04:36:41 51° ESE 04:44:17 10° NE visible
20 Feb 3.5 06:20:48 10° WSW 06:27:54 42° NW 06:35:29 10° NNE visible
21 Feb 4.2 03:50:17 29° SE 03:52:13 33° ESE 03:59:00 10° NE visible
21 Feb 3.1 05:37:47 22° WSW 05:42:47 59° NW 05:50:45 10° NNE visible
22 Feb 4.8 03:07:40 20° ESE 03:07:54 20° ESE 03:13:13 10° ENE visible
22 Feb 2.9 04:55:10 45° SW 04:57:52 85° NW 05:05:57 10° NE visible
23 Feb 5.4 02:24:55 11° E 02:24:55 11° E 02:25:47 10° E visible
23 Feb 3.1 04:12:23 63° SSE 04:13:08 66° ESE 04:21:01 10° NE visible
23 Feb 3.7 05:59:51 18° W 06:04:43 35° NW 06:11:59 10° NNE visible
